Philip, SD

1:14 PM MST on February 08, 2016 (GMT -0700)
Philip

Weather History for KPHP - May, 2012

Change the Weather History Date:

Friday, May 11, 2012

  Actual Average Record
Temperature  
Mean Temperature 51 °F 56 °F  
Max Temperature 64 °F 69 °F 91 °F (2004)
Min Temperature 37 °F 42 °F 26 °F (1952)
Degree Days  
Heating Degree Days 14 10  
Month to date heating degree days 87 128  
Since 1 July heating degree days 5708 6995  
Cooling Degree Days 0 1  
Month to date cooling degree days 1 6  
Year to date cooling degree days 15 9  
Growing Degree Days 2 (Base 50)    
Moisture  
Dew Point 31 °F    
Average Humidity 53    
Maximum Humidity 86    
Minimum Humidity 20    
Precipitation  
Precipitation T in 0.11 in 1.93 in (2005)
Month to date precipitation 0.66 1.09  
Year to date precipitation 3.30 4.98  
Sea Level Pressure  
Sea Level Pressure 30.23 in    
Wind  
Wind Speed 8 mph (NW)    
Max Wind Speed 16 mph    
Max Gust Speed 22 mph    
Visibility 10 miles    
Events      
T = Trace of Precipitation, MM = Missing Value Source: NWS Daily Summary

Daily Weather History Graph

Daily Weather History Graph

Search for Another Location

Airport or City:

Trip Planner

Search our weather history database for the weather conditions in past years. The results will help you decide how hot, cold, wet, or windy it might be!

Date:

Astronomy

May. 11, 2012 Rise Set
Actual Time 5:24 AM MDT 8:02 PM MDT
Civil Twilight 4:51 AM MDT 8:35 PM MDT
Nautical Twilight 4:09 AM MDT 9:16 PM MDT
Astronomical Twilight 3:22 AM MDT 10:04 PM MDT
Moon 12:41 AM MDT (5/11) 11:01 AM MDT (5/11)
Length of Visible Light 15h 44m
Length of Day
14h 38m
Waning Gibbous, 62% of the Moon is Illuminated
May 11
Waning Gibbous
May 12
Last Quarter
May 20
New
May 28
First Quarter
Jun 4
Full

Hourly Weather History & Observations

Time (MDT) Temp. Windchill Dew Point Humidity Pressure Visibility Wind Dir Wind Speed Gust Speed Precip Events Conditions
12:55 AM 46.9 °F - 41.0 °F 80% 30.02 in 10.0 mi NNW 9.2 mph - 0.05 in   Overcast
1:55 AM 46.9 °F - 42.1 °F 83% 30.04 in 10.0 mi NW 6.9 mph - 0.00 in   Overcast
2:55 AM 48.0 °F - 39.9 °F 74% 30.06 in 10.0 mi NNW 9.2 mph - N/A   Overcast
3:55 AM 46.0 °F 41.4 °F 33.1 °F 61% 30.09 in 10.0 mi NNW 9.2 mph - N/A   Overcast
4:55 AM 46.0 °F 40.2 °F 34.0 °F 63% 30.13 in 10.0 mi NNW 12.7 mph - N/A   Overcast
5:55 AM 46.0 °F 41.4 °F 34.0 °F 63% 30.17 in 10.0 mi NW 9.2 mph - N/A   Overcast
6:55 AM 46.0 °F 40.6 °F 34.0 °F 63% 30.21 in 10.0 mi NNW 11.5 mph - N/A   Mostly Cloudy
7:55 AM 46.9 °F - 33.1 °F 59% 30.24 in 10.0 mi NNW 15.0 mph - N/A   Overcast
8:55 AM 46.9 °F - 33.1 °F 59% 30.28 in 10.0 mi NNW 13.8 mph - N/A   Overcast
9:55 AM 48.0 °F - 32.0 °F 54% 30.29 in 10.0 mi NW 12.7 mph - N/A   Overcast
10:55 AM 52.0 °F - 32.0 °F 47% 30.30 in 10.0 mi NNW 11.5 mph - N/A   Mostly Cloudy
11:55 AM 57.0 °F - 28.9 °F 34% 30.30 in 10.0 mi NW 12.7 mph - N/A   Clear
12:55 PM 59.0 °F - 24.1 °F 26% 30.29 in 10.0 mi Variable 6.9 mph 20.7 mph N/A   Clear
1:55 PM 60.1 °F - 21.0 °F 22% 30.28 in 10.0 mi NW 4.6 mph - N/A   Clear
2:55 PM 61.0 °F - 23.0 °F 23% 30.26 in 10.0 mi NNW 11.5 mph - N/A   Clear
3:55 PM 63.0 °F - 21.9 °F 21% 30.25 in 10.0 mi North 8.1 mph - N/A   Clear
4:55 PM 60.1 °F - 21.9 °F 23% 30.25 in 10.0 mi NNW 8.1 mph - N/A   Clear
5:55 PM 61.0 °F - 21.9 °F 22% 30.25 in 10.0 mi Calm Calm - N/A   Mostly Cloudy
6:55 PM 61.0 °F - 25.0 °F 25% 30.25 in 10.0 mi Calm Calm - N/A   Partly Cloudy
7:55 PM 52.0 °F - 34.0 °F 50% 30.27 in 10.0 mi SW 5.8 mph - N/A   Mostly Cloudy
8:55 PM 46.9 °F - 34.0 °F 61% 30.31 in 10.0 mi WSW 6.9 mph - N/A   Mostly Cloudy
9:55 PM 43.0 °F 40.3 °F 33.1 °F 68% 30.33 in 10.0 mi West 4.6 mph - N/A   Clear
10:55 PM 42.1 °F 39.2 °F 30.9 °F 65% 30.33 in 10.0 mi West 4.6 mph - N/A   Clear
11:55 PM 39.9 °F 36.7 °F 30.9 °F 70% 30.33 in 10.0 mi WNW 4.6 mph - N/A   Clear